This is the latest recevied weather packets stored in our database for station/object KE6YLF. If no packets are shown the sender has not sent any weather packets the latest 10 day(s).
| Time | Temp. | Humidity | Pressure | Rain* | Wind** | Luminosity | Snow |
|---|---|---|---|---|---|---|---|
| 1788620080 | 31.67° C | 39% | 1078 hPa | 0 mm | - | - | - |
| 1788619778 | 30.56° C | 41% | 1078 hPa | 0 mm | - | - | - |
| 1788619474 | 30.56° C | 41% | 1077.8 hPa | 0 mm | - | - | - |
| 1788619172 | 30.56° C | 41% | 1077.9 hPa | 0 mm | - | - | - |
| 1788618866 | 30° C | 42% | 1077.8 hPa | 0 mm | - | - | - |
| 1788618561 | 30° C | 41% | 1078 hPa | 0 mm | - | - | - |
| 1788618260 | 30° C | 42% | 1077.9 hPa | 0 mm | - | - | - |
| 1788617956 | 29.44° C | 43% | 1077.9 hPa | 0 mm | - | - | - |
| 1788617651 | 29.44° C | 43% | 1077.8 hPa | 0 mm | - | - | - |
| 1788617347 | 28.89° C | 45% | 1077.7 hPa | 0 mm | - | - | - |
| 1788617042 | 28.89° C | 45% | 1077.8 hPa | 0 mm | - | - | - |
| 1788616741 | 28.33° C | 46% | 1077.7 hPa | 0 mm | - | - | - |
| 1788616436 | 27.78° C | 47% | 1077.5 hPa | 0 mm | - | - | - |
| 1788616132 | 27.78° C | 47% | 1077.3 hPa | 0 mm | - | - | - |
| 1788615830 | 27.78° C | 47% | 1077.3 hPa | 0 mm | - | - | - |
| 1788615524 | 27.78° C | 47% | 1077.3 hPa | 0 mm | - | - | - |
| 1788615220 | 27.78° C | 47% | 1077.2 hPa | 0 mm | - | - | - |
| 1788614919 | 27.22° C | 47% | 1077.3 hPa | 0 mm | - | - | - |
| 1788614615 | 27.22° C | 47% | 1077 hPa | 0 mm | - | - | - |
| 1788614308 | 27.22° C | 48% | 1076.9 hPa | 0 mm | - | - | - |
| 1788614004 | 27.22° C | 47% | 1076.9 hPa | 0 mm | - | - | - |
| 1788613699 | 27.22° C | 47% | 1076.7 hPa | 0 mm | - | - | - |
| 1788613398 | 27.78° C | 47% | 1076.6 hPa | 0 mm | - | - | - |
| 1788613093 | 27.22° C | 47% | 1076.7 hPa | 0 mm | - | - | - |
| 1788612788 | 27.22° C | 48% | 1076.5 hPa | 0 mm | - | - | - |
* Rain latest hour (hover to see other rain measurements)
** Current wind speed in m/s (hover to see current wind gust speed)